Location: Carnières
(50.1682°N, 3.3474°E)
Time: 09:58:38
(UTC+00:00)

Cosmos 2181 Rocket - Pass Details

Date: 23 May 2024
Orbit: 951 x 1014 km, 82.9° (Epoch: 14 June)

Event Time Altitude Azimuth Distance (km) Brightness Sun altitude
Rises 01:48:00 0° 351° (N) 3,747 7.9 -14.0°
Reaches altitude 10° 01:50:36 10° 355° (N) 2,786 7.2 -13.8°
Maximum altitude 01:56:58 64° 77° (ENE) 1,091 4.5 -13.3°
Drops below altitude 10° 02:03:11 10° 159° (SSE) 2,725 6.0 -12.7°
Sets 02:05:41 0° 162° (SSE) 3,660 6.6 -12.5°
